162P/Siding Spring (2015)

Japanese version
Home page
Updated on May 29, 2016

---------------------------------------------------------------------

* Profile

* Pictures

* Orbital Elements

Epoch 2014 Dec. 9.0 TT = JDT 2457000.5
T 2015 July 11.99055 TT                                 MPCW
q   1.2372826            (2000.0)            P               Q
n   0.18445667     Peri.  356.40965     +0.88224331     -0.40406781
a   3.0563738      Node    31.21727     +0.44272589     +0.53750959
e   0.5951796      Incl.   27.78626     +0.16012662     +0.74014366
P   5.34
From 1431 observations 1990 Mar. 23-2014 July 7, mean residual 0".4.

* Finding Charts

* Magnitudes Graph

        H = 13.7  G = 0.15

---------------------------------------------------------------------

The orbital elements are published on M.P.E.C. 2015-E14.
The charts are made with StellaNavigator Ver.8 (AstroArts).
The magnitudes graphs are made with Comet for Windows.

---------------------------------------------------------------------

Copyright(C) Seiichi Yoshida (comet@aerith.net). All rights reserved.